{"data":{"norad_id":52158,"intl_designator":"2022-033B","name":"GNOMES-3","alt_names":[],"object_type":"PAYLOAD","status":"ACTIVE","operator":null,"country":"US","launch_date":"2022-04-01","launch_site_code":"AFETR","launch_vehicle":null,"mission":null,"orbit_class":"UNKNOWN","rcs_meters":null,"size_class":null,"mass_kg":null,"dimensions":null,"purposes":[],"wikipedia_slug":null,"has_3d_model":false,"image_url":null,"decayed_at":null,"tle_current":{"epoch":"2026-05-25T04:39:35.108640Z","epoch_age_seconds":65156,"freshness":"FRESH","line1":"1 52158U 22033B   26145.19415635  .00001735  00000+0  20956-3 0  9993","line2":"2 52158  97.8233 221.9148 0011778  45.6020 314.6157 14.84985927223925","mean_motion":14.84985927,"eccentricity":0.0011778,"inclination_deg":97.8233,"raan_deg":221.9148,"arg_perigee_deg":45.602,"mean_anomaly_deg":314.6157,"bstar":0.00020956,"rev_number":22392,"period_min":96.970615937696,"perigee_km":605.39513427871,"apogee_km":621.86494071223,"semimajor_km":6991.7670374955,"source":"CELESTRAK","updated_at":"2026-05-25T13:37:57.649073Z"}}}